Location: Lussas
(44.6119°N, 4.4726°E)
Time: 15:55:09
(UTC+00:00)

Cosmos 1777 Rocket - Pass Details

Date: 26 November 2020
Orbit: 757 x 777 km, 74.0° (Epoch: 28 January)

Event Time Altitude Azimuth Distance (km) Brightness Sun altitude
Exits shadow 04:23:40 76° 345° (NNW) 784 3.9 -26.1°
Drops below altitude 10° 04:28:33 10° 19° (NNE) 2,297 6.6 -25.2°
Sets 04:30:56 0° 21° (NNE) 3,229 7.4 -24.8°
